Regional Weather Roundup
Issued by NWS

Home | Current Version | Previous Version | Text Only | Print | Product List | Glossary Off
Versions: 1 2 3 4 5 6 7 8 9 10 11 12 13 14 15 16 17 18 19 20 21 22 23 24 25 26 27 28 29 30 31 32 33 34 35 36 37 38 39 40 41 42 43 44 45 46 47 48 49 50

538
ASUS43 KMKX 301621
RWRWI

WISCONSIN REGIONAL WEATHER ROUNDUP
NATIONAL WEATHER SERVICE MILWAUKEE/SULLIVAN WI
1100 AM CDT FRI SEP 30 2016

NOTE: "FAIR" INDICATES FEW OR NO CLOUDS BELOW 12,000 FEET WITH NO
SIGNIFICANT WEATHER AND/OR OBSTRUCTIONS TO VISIBILITY.

WIZ001-002-006>008-014>016-023>028-301700-
NORTHWEST WISCONSIN

CITY           SKY/WX    TMP DP  RH WIND       PRES   REMARKS
SUPERIOR ARPT  CLOUDY    56  51  85 NE8       30.44S
ASHLAND        CLOUDY    56  52  86 NE13      30.44S
HAYWARD        SUNNY     58  50  75 N8        30.40S
SIREN          MOSUNNY   56  50  80 NE5       30.40F
CUMBERLAND     MOSUNNY   55  50  82 NE8       30.38S
RICE LAKE      SUNNY     60  51  73 N7        30.38F
CHETEK         NOT AVBL
LADYSMITH      SUNNY     58  51  77 NE6       30.38F
EAU CLAIRE     SUNNY     64  52  64 NE8       30.33F
MENOMONIE      SUNNY     62  53  73 NW6       30.35F
NEW RICHMOND   SUNNY     62  51  67 N8        30.36F
OSCEOLA        SUNNY     57  57 100 N5        30.39F
$$

WIZ003>005-009-010-017-018-301700-
NORTH CENTRAL WISCONSIN

CITY           SKY/WX    TMP DP  RH WIND       PRES   REMARKS
MANITOWISH WTR NOT AVBL
ARBOR VITAE    MOSUNNY   59  53  78 NE7       30.38F
WOODRUFF       MOSUNNY   59  53  78 NE7       30.38F
RHINELANDER    SUNNY     62  52  69 VRB6G17   30.37F
EAGLE RIVER    SUNNY     59  51  73 NE8       30.38F
LAND O LAKES   MOSUNNY   58  52  79 NE8       30.41F
PHILLIPS       SUNNY     57  52  83 NE10      30.37F
TOMAHAWK       MOSUNNY   61  50  67 NE5       30.36F
MEDFORD        CLOUDY    61  51  69 NE14      30.33F
MERRILL        CLOUDY    64  50  61 E13       30.34F
$$

WIZ029-030-035-036-043>047-301700-
CENTRAL WISCONSIN

CITY           SKY/WX    TMP DP  RH WIND       PRES   REMARKS
WAUSAU         SUNNY     65  50  58 NE12G17   30.31F
MOSINEE        MOSUNNY   63  52  67 NE14      30.32F
MARSHFIELD     SUNNY     64  50  60 NE13      30.30F
STEVENS POINT  MOSUNNY   64  53  67 E12       30.30F
WAUPACA        CLOUDY    62  57  83 NE10      30.30S
WAUTOMA        CLOUDY    60  55  83 NE8       30.28F
WISC RAPIDS    PTSUNNY   64  55  72 E13       30.30F
CAMP DOUGLAS   PTSUNNY   61  55  82 NE8       30.29S
$$

WIZ011>013-019>022-031-037>040-048>050-301700-
NORTHEAST WISCONSIN

CITY           SKY/WX    TMP DP  RH WIND       PRES   REMARKS
ANTIGO         SUNNY     62  51  68 NE16      30.34S
SHAWANO        CLOUDY    63  55  77 NE12G17   30.31F
OCONTO         NOT AVBL
STURGEON BAY   CLOUDY    63  57  81 NE12G20   30.31R
GREEN BAY      CLOUDY    61  59  93 NE14      30.29S
MANITOWOC      LGT RAIN  62  57  83 MISG      30.28S
APPLETON       CLOUDY    59  57  94 N12G17    30.27S
CLINTONVILLE   CLOUDY    61  54  77 NE14G23   30.30F
OSHKOSH        CLOUDY    60  57  89 NE16G24   30.26F
$$

WIZ032>034-041-042-053>061-301700-
SOUTHWEST WISCONSIN

CITY           SKY/WX    TMP DP  RH WIND       PRES   REMARKS
LA CROSSE      PTSUNNY   64  54  69 N8        30.29F
SPARTA         CLOUDY    59  54  81 NE9       30.30S
VIROQUA        CLOUDY    58  54  86 NE5       30.28S
BOSCOBEL       CLOUDY    62  55  77 NE6       30.26F
PRAIRIE DU CHI CLOUDY    61  52  73 N3        30.26S
PLATTEVILLE    CLOUDY    60  58  95 N12       30.24S
$$

WIZ056-057-062-063-064-067-068-301700-
SOUTH CENTRAL WISCONSIN

CITY           SKY/WX    TMP DP  RH WIND       PRES   REMARKS
REEDSBURG      NOT AVBL
BARABOO/DELLS  CLOUDY    58  54  86 NE9       30.26F
LONE ROCK      CLOUDY    61  55  81 NE8G16    30.25F
MINERAL POINT  CLOUDY    59  57  94 NE8       30.24F
MADISON        CLOUDY    61  57  87 NE15      30.22F
MIDDLETON      CLOUDY    61  59  93 NE12      30.24S
WATERTOWN      CLOUDY    60  60 100 NE10      30.22F
MONROE         CLOUDY    59  55  88 NE14G21   30.21F
JANESVILLE     CLOUDY    64  57  77 NE7       30.19F
$$

WIZ051-052-058>065-066-070>072-301700-
SOUTHEAST WISCONSIN

CITY           SKY/WX    TMP DP  RH WIND       PRES   REMARKS
MILWAUKEE      LGT RAIN  60  57  89 N12       30.22S FOG
WAUKESHA       LGT RAIN  57  57 100 NE10G17   30.22F FOG
MILWAUKEE/TIMM DRIZZLE   59  55  88 NE14      30.23S FOG
RACINE         LGT RAIN  62  59  90 NE10      30.21S
BURLINGTON     CLOUDY    59  57  94 NE9G17    30.20S
KENOSHA        LGT RAIN  62  60  93 NE13      30.19S FOG
FOND DU LAC    CLOUDY    61  58  90 NE12      30.26S
SHEBOYGAN      LGT RAIN  60  57  89 NE13      30.26R
WEST BEND      DRIZZLE   66  66 100 NE12G17   30.24S
JUNEAU         CLOUDY    60  57  92 NE8       30.25S
$$

LSZ147-162-301700-
LAKE SUPERIOR

STATION/POSITION TIME  TEMP    WIND        PRES    WAVE
                       AIR SEA DIR/SP/G            HT/PER
                 (UTC) (F)     (DEG/KT/KT) (MB)    (FT/S)
W MID LAKE BUOY  1550   55 55   60/ 12/ 14 1030.6F   2/ 3
DEVILS ISLAND    1600   53      30/ 11/ 12 1031.5F
SAXON HARBOR     1500   55      10/  3/  4 1030.5S
$$

LMZ867-665-643>646-301700-
LAKE MICHIGAN

STATION/POSITION TIME  TEMP    WIND        PRES    WAVE
                       AIR SEA DIR/SP/G            HT/PER
                 (UTC) (F)     (DEG/KT/KT) (MB)    (FT/S)
CHAMBERS ISLAND  1500   60      20/ 18/ 23 1026.4R
S GREEN BAY BUOY 1600   61 62   50/ 19/ 23 1025.4R
N MID LAKE BUOY  1550   62 65   70/ 17/ 21 1025.9R   4/ 4
NORTHPORT PIER   1500   63      40/ 10/ 19 1026.8R
SISTER BAY       1538   67     360/ 10/ 16   N/A
KEWAUNEE LAKESHO 1600   62      50/  9/ 15 1024.9R
SHEBOYGAN LAKESH 1600   61      40/ 15/ 17 1024.0F
PORT WASHINGTON  1540   60      40/  9/ 12 1024.4S
ATWATER BUOY     1600   57 53   20/ 10/ 14 1022.9F
MILWAUKEE LAKESH 1610   58      20/ 14/ 15   N/A
S MID LAKE BUOY  1550   62 67   70/ 19/ 23 1021.0F   5/ 6
KENOSHA   LAKESH 1600   61      50/ 18/ 20 1021.7S
$$

TC  - TEMPERATURE IN CELSIUS
VSB - VISIBILITY IN STATUTE MILES
WCI - WIND CHILL INDEX
HX  - HEAT INDEX





USA.gov is the U.S. government's official web portal to all federal, state and local government web resources and services.